This is the latest recevied weather packets stored in our database for station/object KE4LOJ. If no packets are shown the sender has not sent any weather packets the latest 1 day(s).
| Time | Temp. | Humidity | Pressure | Rain* | Wind** | Luminosity | Snow |
|---|---|---|---|---|---|---|---|
| 1778039718 | 20° C | 77% | 1017.3 hPa | 0 mm | - | 0 W/m² | - |
| 1778039112 | 20.56° C | 76% | 1017.5 hPa | 0 mm | - | 0 W/m² | - |
| 1778038809 | 20.56° C | 76% | 1017.3 hPa | 0 mm | - | 0 W/m² | - |
| 1778037596 | 21.11° C | 74% | 1017.2 hPa | 0 mm | - | 0 W/m² | - |
| 1778037294 | 20.56° C | 74% | 1017.1 hPa | 0 mm | - | 0 W/m² | - |
| 1778036386 | 20.56° C | 73% | 1017.2 hPa | 0 mm | - | 0 W/m² | - |
| 1778036083 | 21.11° C | 73% | 1017.1 hPa | 0 mm | - | 0 W/m² | - |
| 1778035780 | 21.11° C | 72% | 1017.1 hPa | 0 mm | - | 0 W/m² | - |
| 1778035477 | 21.11° C | 71% | 1017 hPa | 0 mm | - | 0 W/m² | - |
| 1778035172 | 20.56° C | 71% | 1017 hPa | 0 mm | - | 0 W/m² | - |
| 1778034566 | 20.56° C | 72% | 1016.8 hPa | 0 mm | - | 0 W/m² | - |
| 1778034264 | 20.56° C | 72% | 1017.1 hPa | 0 mm | - | 0 W/m² | - |
| 1778033962 | 20.56° C | 72% | 1017.1 hPa | 0 mm | - | 0 W/m² | - |
| 1778033659 | 20.56° C | 71% | 1017.2 hPa | 0 mm | - | 0 W/m² | - |
| 1778033053 | 21.11° C | 70% | 1016.8 hPa | 0 mm | - | 0 W/m² | - |
| 1778032750 | 21.11° C | 70% | 1016.9 hPa | 0 mm | - | 0 W/m² | - |
| 1778032448 | 21.11° C | 70% | 1016.9 hPa | 0 mm | - | 0 W/m² | - |
| 1778032144 | 21.67° C | 69% | 1016.8 hPa | 0 mm | - | 0 W/m² | - |
| 1778031538 | 21.67° C | 70% | 1016.7 hPa | 0 mm | - | 0 W/m² | - |
| 1778031236 | 21.67° C | 69% | 1016.9 hPa | 0 mm | - | 0 W/m² | - |
| 1778030932 | 21.67° C | 68% | 1016.8 hPa | 0 mm | - | 0 W/m² | - |
| 1778030629 | 21.67° C | 67% | 1016.7 hPa | 0 mm | - | 0 W/m² | - |
| 1778030326 | 22.22° C | 67% | 1016.8 hPa | 0 mm | - | 0 W/m² | - |
| 1778030023 | 22.22° C | 67% | 1016.7 hPa | 0 mm | - | 0 W/m² | - |
| 1778029720 | 22.22° C | 65% | 1016.6 hPa | 0 mm | - | 0 W/m² | - |
* Rain latest hour (hover to see other rain measurements)
** Current wind speed in m/s (hover to see current wind gust speed)